This demonstration page uses our WeatherBlox Daily Observations layout. Learn more.

Left ArrowRight Arrow

39.01783, -85.05884

Hourly Observations for September 1, 2020

Temp ( °F °C ) Dew Point ( °F °C ) Humidity (%) Winds ( mph kmh ) Pressure ( in mb ) Visibility ( mi km ) Precip ( " mm )
12:52 am 00:52 Partly Cloudy 71 21.7 68 20 90 90 Calm 29.89 1012 10 16 0.00 0.00
1:23 am 01:23 Mostly Cloudy 71 21.7 68 20 90 90 Calm 29.90 1013 10 16 0.00 0.00
1:52 am 01:52 Cloudy 72 22.2 69 20.6 91 91 Calm 29.91 1013 10 16 0.00 0.00
2:52 am 02:52 Mostly Cloudy 71 21.7 68 20 90 90 S 3 6 29.91 1013 10 16 0.00 0.00
3:52 am 03:52 Mostly Clear with Mist and Fog 71 21.7 68 20 90 90 Calm 29.89 1012 6 10 0.00 0.00
4:52 am 04:52 Mostly Clear with Mist and Fog 69 20.6 67 19.4 93 93 Calm 29.88 1012 4 6 0.00 0.00
5:04 am 05:04 Mostly Clear with Mist and Fog 69 20.6 67 19.4 93 93 S 3 6 29.89 1012 3 5 0.00 0.00
5:52 am 05:52 Partly Cloudy with Mist and Fog 70 21.1 68 20 93 93 Calm 29.88 1012 4 6 0.00 0.00
6:01 am 06:01 Mostly Cloudy with Mist and Fog 70 21.1 68 20 93 93 Calm 29.88 1012 3 5 0.00 0.00
6:15 am 06:15 Partly Cloudy with Patchy Fog 70 21.1 68 20 93 93 Calm 29.89 1012 4 6 0.00 0.00
6:52 am 06:52 Mostly Clear with Mist and Fog 69 20.6 68 20 96 96 Calm 29.91 1013 4 6 0.00 0.00
7:12 am 07:12 Partly Cloudy with Mist and Fog 69 20.6 67 19.4 93 93 Calm 29.92 1013 3 5 0.00 0.00
7:52 am 07:52 Partly Cloudy with Mist and Fog 70 21.1 68 20 93 93 Calm 29.93 1013 5 8 0.00 0.00
8:52 am 08:52 Mostly Sunny 72 22.2 70 21.1 94 94 Calm 29.94 1014 7 11 0.00 0.00
9:52 am 09:52 Mostly Sunny 76 24.4 71 21.7 85 85 SSE 3 6 29.93 1014 8 13 0.00 0.00
10:52 am 10:52 Mostly Cloudy 79 26.1 70 21.1 74 74 SSE 6 9 29.93 1014 9 14 0.00 0.00
11:52 am 11:52 Mostly Cloudy 81 27.2 70 21.1 69 69 SSE 9 15 29.93 1013 9 14 0.00 0.00
12:01 pm 12:01 Mostly Cloudy 80 26.7 70 21.1 71 71 SSE 9 15 29.92 1013 9 14 0.00 0.00
12:52 pm 12:52 Mostly Cloudy 80 26.7 70 21.1 71 71 S 10 17 29.93 1013 9 14 0.00 0.00
1:08 pm 13:08 Mostly Cloudy 82 27.8 70 21.1 67 67 S 9 15 29.91 1013 9 14 0.00 0.00
1:52 pm 13:52 Mostly Cloudy 81 27.2 71 21.7 72 72 S 10 17 29.93 1014 10 16 0.00 0.00
2:52 pm 14:52 Cloudy 82 27.8 68 20 63 63 S 9 15 29.91 1013 10 16 0.00 0.00
3:52 pm 15:52 Cloudy 82 27.8 71 21.7 69 69 SW 8 13 29.89 1012 10 16 0.00 0.00
4:52 pm 16:52 Cloudy 81 27.2 71 21.7 72 72 SW 8 13 29.89 1012 10 16 0.00 0.00
5:52 pm 17:52 Mostly Cloudy 80 26.7 71 21.7 74 74 S 5 7 29.88 1012 10 16 0.00 0.00
6:52 pm 18:52 Cloudy 79 26.1 70 21.1 74 74 S 3 6 29.87 1012 10 16 0.00 0.00
7:52 pm 19:52 Cloudy 78 25.6 70 21.1 76 76 SSW 5 7 29.87 1011 10 16 0.00 0.00
8:52 pm 20:52 Cloudy 77 25 70 21.1 79 79 S 6 9 29.87 1012 10 16 0.00 0.00
9:52 pm 21:52 Cloudy 77 25 71 21.7 82 82 S 6 9 29.88 1012 10 16 0.00 0.00
10:52 pm 22:52 Cloudy 76 24.4 71 21.7 85 85 SSW 8 13 29.86 1011 10 16 0.00 0.00
11:52 pm 23:52 Mostly Cloudy 75 23.9 71 21.7 88 88 S 8 13 29.86 1011 10 16 0.00 0.00

Powered by AerisWeather